Regional Weather Roundup
Issued by NWS Lake Charles, LA

Home | Current Version | Previous Version | Text Only | Print | Product List | Glossary On
Versions: 1 2 3 4 5 6 7 8 9 10 11 12 13 14 15 16 17 18 19 20 21 22 23 24 25 26 27 28 29 30 31 32 33 34 35 36 37 38 39 40 41 42 43 44 45 46 47 48 49 50
000
ASUS44 KLCH 311610
RWRLCH
RWRLCH
REGIONAL WEATHER ROUNDUP
NATIONAL WEATHER SERVICE LAKE CHARLES LA
1100 AM CDT MON AUG 31 2015

Note: "fair" indicates few or no clouds below 12,000 feet with no
significant weather and/or obstructions to visibility.


ACROSS SOUTHEAST TEXAS

CITY           SKY/WX    TMP DP  RH WIND       PRES   REMARKS
BEAUMONT       PTSUNNY   84  72  67 NE9       30.05S
BEAUMONT CITY    N/A     83  72  67 NE5       30.06F
ORANGE         PTSUNNY   84  67  56 CALM      30.08S
JASPER         CLOUDY    85  70  60 CALM      30.10S
$$

ACROSS CENTRAL LOUISIANA

CITY           SKY/WX    TMP DP  RH WIND       PRES   REMARKS
LEESVILLE      MOSUNNY   83  66  56 VRB3      30.08S
FULLERTON        N/A     85  64  49 CALM      30.06S
ALEXANDRIA INT SUNNY     86  64  47 VRB7      30.07S
ESLER FIELD    MOSUNNY   88  69  53 S6        30.08F
DERIDDER       PTSUNNY   85  65  50 CALM      30.10S
OAKDALE          N/A     85  72  64 W3        30.09R
OPELOUSAS        N/A     86  73  64 CALM      30.08S
$$

ACROSS SOUTHWEST AND SOUTH CENTRAL LOUISIANA

CITY           SKY/WX    TMP DP  RH WIND       PRES   REMARKS
SULPHUR        PTSUNNY   84  72  66 N6        30.07S
LAKE CHARLES   MOSUNNY   87  72  60 VRB6      30.06S
CHENNAULT INT  NOT AVBL
CAMERON PHI    MOSUNNY   84  73  70 NE7       30.09R
DEQUINCY         N/A     82  69  66 CALM      30.08S
JENNINGS         N/A     82  73  74 CALM      30.07S
LAFAYETTE      PTSUNNY   85  73  67 E3        30.08R
NEW IBERIA     PTSUNNY   86  72  62 NE3       30.07S
ABBEVILLE      PTSUNNY   83  74  73 CALM      30.08R
PATTERSON      CLOUDY    84  75  74 CALM      30.09S
SALT POINT       N/A     86  77  74 VRB3      30.05S
$$

SELECTED SITES ACROSS THE REGION

CITY           SKY/WX    TMP DP  RH WIND       PRES   REMARKS
HOUSTON BUSH   PTSUNNY   86  74  67 SE3       30.05R
HOUSTON HOBBY  PTSUNNY   85  72  65 S5        30.04R
GALVESTON      CLOUDY    85  73  67 E7        30.04S
COLLEGE STAT   MOSUNNY   84  72  67 W5        30.05R
CONROE         SUNNY     86  68  54 VRB3      30.06S
HUNTSVILLE     MOSUNNY   86  70  58 VRB6      30.06S
LUFKIN         SUNNY     84  68  58 CALM      30.07S
SHREVEPORT     PTSUNNY   86  69  56 MISG      30.08R
MONROE         SUNNY     88  69  53 CALM      30.08S
NATCHEZ MS     SUNNY     84  70  61 N3        30.11S
BATON ROUGE    MOSUNNY   87  71  58 N3        30.08S
N.O. INTL ARPT PTSUNNY   86  71  60 NE8       30.08S
SLIDELL        SUNNY     87  73  62 N7        30.08S
$$

MARINE REPORTS

STATION/POSITION TIME  TEMP    WIND        PRES    VSBY  WAVE
                       AIR SEA DIR/SP/G                  HT/PER
                 (UTC) (F)     (DEG/KT/KT) (MB)    (MI)  (FT/S)
BUOY 30 S HIGH I 1550   85 85   80/  6/  8 1016.9R         1/ 3
SEA RIM ST PARK  1500   82      30/  9/ 11 1018.1R
PORT ARTHUR      NOT AVBL
SABINE PASS N    NOT AVBL
TEXAS POINT      NOT AVBL
CALCASIEU PASS   NOT AVBL
LK CHARLES BEACH NOT AVBL
MARSH ISLAND     NOT AVBL
FRESH WATER LOCK NOT AVBL
AMERADA PASS     NOT AVBL
$$


USA.gov is the U.S. government's official web portal to all federal, state and local government web resources and services.